Regional Weather Roundup
Issued by NWS Northern Indiana

Home | Current Version | Previous Version | Graphics & Text | Print | Product List | Glossary On
Versions: 1 2 3 4 5 6 7 8 9 10 11 12 13 14 15 16 17 18 19 20 21 22 23 24 25 26 27 28 29 30 31 32 33 34 35 36 37 38 39 40 41 42 43 44 45 46 47 48 49 50
000
ASUS43 KIWX 241310
RWRIWX

KIWX WEATHER ROUNDUP
NATIONAL WEATHER SERVICE NORTHERN INDIANA
800 AM EST TUE JAN 24 2017

NOTE: "FAIR" INDICATES FEW OR NO CLOUDS BELOW 12,000 FEET WITH NO
SIGNIFICANT WEATHER AND/OR OBSTRUCTIONS TO VISIBILITY.

* THESE STATIONS ARE NOT UNDER NWS QUALITY CONTROL. THEY ALSO MAY NOT
  REPORT WEATHER SUCH AS PRECIPITATION OR FOG.

INZ001>027-241400-
NORTHERN INDIANA

CITY           SKY/WX    TMP DP  RH WIND       PRES   REMARKS
GARY*          CLOUDY    39  34  81 NW3       29.88R
VALPARAISO     CLOUDY    38  35  89 VRB5      29.86R
LAPORTE*       CLOUDY    37  34  90 NW5       29.86S
KNOX*          CLOUDY    36  23  60 NW6       29.85S
SOUTH BEND     CLOUDY    37  35  92 NW8       29.84R
ELKHART*       MOCLDY    37  36  93 NW7       29.83R
GOSHEN         CLOUDY    38  34  85 W9        29.82R
ROCHESTER*     CLOUDY    39  36  87 W7        29.85R
WARSAW*        CLOUDY    36  32  87 NW8       29.83R
FORT WAYNE     DRIZZLE   40  36  86 NW10      29.81R
PERU/GRISSOM   CLOUDY    38  36  91 NW9       29.83R
MARION*        CLOUDY    37  36  93 NW13      29.84R FOG

$$
INZ028>050-241400-
CENTRAL INDIANA

CITY           SKY/WX    TMP DP  RH WIND       PRES   REMARKS
LAFAYETTE      CLOUDY    38  35  89 NW7       29.88R
KOKOMO*        CLOUDY    38  34  85 NW10      29.85R
MUNCIE*        CLOUDY    40  37  89 NW12      29.82R
INDIANAPOLIS   CLOUDY    39  33  79 NW12      29.87R

$$
MIZ043>046-050>051-056>058-064>065-071>073-077>080-241400-
SOUTHWEST LOWER MICHIGAN

CITY           SKY/WX    TMP DP  RH WIND       PRES   REMARKS
BATTLE CREEK   CLOUDY    38  37  97 NW12      29.80R
BENTON HARBOR  CLOUDY    39  35  86 W7        29.84R
COLDWATER*     CLOUDY    38  38 100 NW8       29.79R FOG
HILLSDALE*     CLOUDY    37  36  93 NW10      29.74S FOG
HOLLAND        CLOUDY    38  35  89 NW7       29.82R
GRAND RAPIDS   CLOUDY    38  35  89 NW8       29.80R
KALAMAZOO      CLOUDY    38  34  85 NW9       29.81R
STURGIS*       CLOUDY    37  37  99 NW7       29.80R FOG
THREE RIVERS*  CLOUDY    38  36  91 NW7       29.82R

$$
OHZ001>008-015>018-024>025-241400-
NORTHWEST OHIO

CITY           SKY/WX    TMP DP  RH WIND       PRES   REMARKS
DEFIANCE       CLOUDY    40  38  93 W5        29.78R
FINDLAY        CLOUDY    38  36  92 CALM      29.75S FOG
TOLEDO EXPRESS CLOUDY    39  39 100 NW5       29.75R
TOLEDO METCALF CLOUDY    37  37 100 SW3       29.76S FOG
LIMA           CLOUDY    40  40 100 NW13      29.76R

$$
AND FOR LAKE MICHIGAN COASTAL AND OPEN LAKE BUOY OBSERVATIONS

STATION/POSITION TEMP    WIND        PRES    VSBY  WAVE
                 AIR SEA DIR/SP/G                  HT/PER
                 (F)     (DEG/KT/KT) (MB)    (MI)  (FT/S)
CALUMET HARBOR    37     300/  5/  8 1010.9R
BURNS HARBOR      35     300/  8/  9 1011.9R

$$
&&




USA.gov is the U.S. government's official web portal to all federal, state and local government web resources and services.